Location: Napier
(39.4830°S, 176.9170°E)
Time: 16:35:04
(UTC+12:00)

Lacrosse 5 - Pass Details

Date: 24 January 2019
Orbit: 712 x 726 km, 57.0° (Epoch: 16 April)

Event Time Altitude Azimuth Distance (km) Brightness Sun altitude
Rises 21:09:15 0° 223° (SW) 3,160 7.0 -6.5°
Reaches altitude 10° 21:11:40 10° 221° (SW) 2,232 5.9 -6.9°
Maximum altitude 21:16:49 76° 134° (SE) 750 2.0 -7.7°
Enters shadow 21:21:50 10° 48° (NE) 2,182 3.7 -8.5°
